Location: Fairmont
(43.6520°N, 94.4610°W)
Time: 16:10:45
(UTC-05:00)

Daily predictions for brighter satellites

Satellite Brightness Start Highest point End
(mag) Time Altitude Azimuth Time Altitude Azimuth Time Altitude Azimuth
Cosmos 676 Rocket 4.5 21:07:52 10° N 21:12:54 47° ENE 21:17:55 10° SE
CZ-2D R/B 4.4 21:10:31 10° S 21:14:11 45° W 21:17:53 10° NNW
Cosmos 1238 Rocket 4.0 21:12:30 10° NNE 21:15:01 20° ENE 21:17:48 10° SE
Cosmos 1174 3.8 21:12:02 10° NNW 21:15:14 42° NE 21:18:07 10° SE
USA 186 2.9 21:14:06 10° S 21:17:08 45° W 21:20:20 10° NNW
Cosmos 2056 Rocket 3.5 21:13:24 10° SSW 21:18:33 87° ESE 21:23:43 10° NNE
Cosmos 1862 4.3 21:16:47 10° SSE 21:20:19 29° E 21:23:52 10° NNE
Cosmos 2074 Rocket 4.1 21:14:29 10° S 21:20:46 88° ESE 21:27:04 10° N
SPOT 5 3.8 21:16:50 10° SE 21:21:41 38° ENE 21:26:37 10° N
NOSS 2-2 (D) 3.9 21:19:32 10° SW 21:23:41 75° NW 21:28:35 10° NE
COS B Rocket 4.1 21:21:29 10° NNE 21:25:13 33° E 21:28:37 10° SSE
Cosmos 1674 Rocket 3.6 21:22:06 10° N 21:26:35 82° E 21:31:00 10° S
Okean 3 4.4 21:24:35 10° N 21:28:28 32° ENE 21:32:18 10° SE
Okean 2 Rocket 4.3 21:26:10 10° SE 21:29:38 23° E 21:33:08 10° NE
Cosmos 1610 Rocket 4.5 21:24:17 10° S 21:30:25 73° E 21:36:38 10° NNE
SL-27 R/B 3.1 21:27:28 10° NNW 21:31:04 57° WSW 21:34:35 10° S
Cosmos 1606 2.9 21:29:27 10° N 21:33:21 57° E 21:37:13 10° SSE
Nadezhda 3 Rocket 4.2 21:29:33 10° N 21:35:52 62° E 21:42:09 10° SSE
Meteor 1-27 Rocket 3.7 21:31:38 10° N 21:37:12 69° ENE 21:42:41 10° SSE
NOSS 2-2 (C) 4.5 21:34:23 10° SW 21:38:28 55° NW 21:43:21 10° NNE
Sich 1 Rocket 3.6 21:35:00 10° S 21:39:34 78° E 21:44:10 10° N
Cosmos 1892 4.2 21:37:02 10° SSW 21:40:40 40° WNW 21:44:21 10° N
Cosmos 1782 Rocket 4.2 21:38:58 10° SSE 21:43:06 38° E 21:47:16 10° NNE
BREEZE-M DEB (TANK) 4.0 21:26:59 10° WNW 21:44:21 81° NNE 21:48:20 12° ESE
Cosmos 1782 3.4 21:40:46 10° NNW 21:44:45 60° W 21:48:43 10° S
BREEZE-M DEB (TANK) 2.7 21:46:00 10° W 21:47:59 34° NNW 21:50:13 10° NE
GPS 2-05 Rocket1 4.4 21:46:18 10° SW 21:49:06 20° S 21:50:40 16° SE
COSMOS 2487 2.7 21:45:51 10° NNW 21:49:26 57° ENE 21:52:14 15° SE
MetOp-B 4.3 21:46:20 11° SSE 21:51:22 57° ENE 21:56:37 10° N
Envisat 3.0 21:46:59 10° SSE 21:52:04 86° WSW 21:57:11 10° NNW
Coronas F rocket 4.4 21:50:23 10° WSW 21:52:14 17° WNW 21:54:07 10° NNW
APEX 4.4 21:51:35 11° SSE 21:54:49 29° ESE 21:59:04 10° NE
DNEPR-1 R/B 4.2 21:49:28 10° NNW 21:54:58 56° NE 21:58:32 17° SE
Cosmos 1975 Rocket 3.2 21:52:43 10° N 21:56:59 55° E 22:00:25 15° SSE
Cosmos 1939 Rocket 3.4 21:54:35 10° S 21:58:24 57° W 22:02:17 10° NNW
Cosmos 2341 Rocket 4.0 21:55:48 10° S 22:02:03 73° E 22:08:18 10° NNE
Cosmos 1420 Rocket 4.2 21:58:05 10° S 22:03:07 49° ESE 22:08:09 10° NNE
Cosmos 614 Rocket 4.4 22:00:22 10° N 22:05:17 46° ENE 22:08:38 19° SE
Cosmos 2084 3.1 22:03:27 10° SW 22:07:19 89° E 22:11:10 10° NE
Cosmos 1908 Rocket 3.9 22:03:30 10° SSW 22:07:53 67° W 22:12:20 10° N
Cosmos 1378 Rocket 3.7 22:04:37 10° NNW 22:08:56 70° W 22:13:08 10° S
ARGOS 3.5 22:05:13 17° SE 22:09:07 50° ENE 22:14:18 10° N
ATLAS 5 CENTAUR R/B 4.2 22:04:37 10° WNW 22:09:31 25° WSW 22:14:37 10° SSW
ERS-1 Rocket 4.2 22:04:53 10° SSW 22:09:35 40° W 22:14:20 10° NNW
Elektron 3 3.9 22:08:08 10° NW 22:11:01 82° NE 22:13:13 23° SE
deb Chang Zheng 4 4.2 22:09:05 10° N 22:13:27 61° WNW 22:17:48 10° SSW
UNK 4.5 22:07:20 10° NNE 22:13:32 64° ESE 22:19:24 10° S
Timation 2 Rocket 3.9 22:09:05 10° NNW 22:15:07 76° ENE 22:19:20 20° SSE
Cosmos 1140 Rocket 3.4 22:10:16 10° NNW 22:15:26 85° ENE 22:19:07 20° SSE
SL-8 Rocket 4.1 22:10:10 12° SSE 22:15:56 55° E 22:22:01 10° NNE
H-2A R/B 3.1 22:13:15 18° ESE 22:16:20 32° ENE 22:20:59 10° N
Cosmos 962 Rocket 4.5 22:10:26 10° S 22:16:36 89° WNW 22:22:53 10° N
YAOGAN 6 2.5 22:18:38 22° S 22:20:48 84° WSW 22:24:20 10° NNW
Cosmos 1452 Rocket 4.0 22:16:19 10° SSW 22:21:31 62° WNW 22:26:46 10° NNE
Cosmos 1242 Rocket 2.5 22:19:00 10° N 22:22:41 86° E 22:24:44 25° SSE
Cosmos 1408 3.3 22:19:24 10° SSW 22:23:00 54° W 22:26:36 10° N
USA 245 3.0 22:21:41 28° SSE 22:23:21 75° ENE 22:27:28 10° N
CZ-4 SHROUD 3.6 22:23:23 23° S 22:25:07 59° W 22:28:11 10° NNW
USA 234 4.0 22:20:28 10° ENE 22:25:54 27° SE 22:30:49 12° S
CZ-4B R/B 3.4 22:22:31 10° NNE 22:27:27 62° ESE 22:31:08 17° S
Cosmos 1825 3.1 22:24:06 10° SSW 22:27:48 48° WNW 22:31:32 10° N
PSLV R/B 4.0 22:28:00 21° SSW 22:29:37 44° W 22:32:28 10° NNW
Cosmos 1833 Rocket 3.1 22:25:11 10° NNW 22:30:39 49° ENE 22:33:42 25° ESE
SPOT 1/Viking Rocket 3.5 22:28:03 21° SSE 22:31:38 89° ENE 22:36:53 10° NNW
Cosmos 2278 Rocket 2.5 22:27:47 10° SSW 22:33:26 70° WNW 22:39:08 10° NNE
Cosmos 2151 Rocket 3.8 22:33:24 28° SSE 22:35:29 51° E 22:39:54 10° NNE
Cosmos 1184 Rocket 4.1 22:33:10 10° SSW 22:36:21 41° WNW 22:39:33 10° N
Cosmos 1844 Rocket 4.4 22:31:30 10° WSW 22:36:38 35° NW 22:41:46 10° N
H-2A R/B 3.8 22:33:19 10° SSW 22:37:00 28° W 22:40:39 10° NW
Landsat 7 4.1 22:36:06 29° SE 22:38:17 54° ENE 22:42:56 10° N
Meteor 1-14 Rocket 4.1 22:41:16 16° S 22:45:56 84° E 22:51:33 10° NNE
Cosmos 864 Rocket 4.5 22:42:35 23° SSE 22:46:31 65° E 22:52:37 10° NNE
CZ-3C R/B 4.3 22:41:21 10° SW 22:48:10 13° SSW 22:50:58 12° S
IGS 5A 4.2 22:47:10 33° ESE 22:48:15 39° ENE 22:52:09 10° N
ISS -2.6 22:47:17 10° WSW 22:50:29 54° NNW 22:53:41 10° NE
Cosmos 1812 3.3 22:47:14 10° N 22:50:56 40° ENE 22:51:28 38° E
Cosmos 2082 Rocket 2.2 22:46:25 10° NNW 22:52:10 88° ENE 22:54:52 33° SSE
Cosmos 1850 Rocket 4.4 22:47:35 10° NNW 22:52:50 61° WSW 22:55:43 26° S
Terra 2.1 22:52:21 36° SE 22:54:01 54° ENE 22:58:40 10° N
Intercosmos 25 4.0 22:52:28 16° SSW 22:54:57 43° W 22:58:01 10° N
Cosmos 1300 Rocket 4.3 22:55:01 34° ESE 22:55:28 35° E 22:59:31 10° NNE
Cosmos 2366 rocket 3.9 22:51:57 21° S 22:56:22 82° E 23:02:45 10° N
SL-08 RB Rocket 3.9 22:55:26 31° S 22:57:36 69° WSW 23:02:15 10° NNW
Okean 1 Rocket 3.9 22:58:10 32° E 22:58:27 32° E 23:02:27 10° NNE
Spot 4 4.2 23:03:33 39° ESE 23:04:59 53° ENE 23:09:43 10° N
Okean 1-7 Rocket 4.2 23:02:13 10° N 23:06:28 40° ENE 23:07:07 37° E
Cosmos 2297 3.9 23:02:54 10° SSW 23:08:36 71° WNW 23:14:21 10° NNE
Meteor 1-11 Rocket 4.5 23:12:11 33° ESE 23:13:15 35° E 23:18:25 10° NNE
USA 229 DEB 3.8 23:06:28 10° NW 23:13:35 78° SW 23:16:52 35° SSE
USA 229 3.8 23:06:34 10° NW 23:13:41 79° SW 23:16:58 35° SSE
DMSP B5D2-2 4.0 23:08:29 10° NNE 23:13:42 67° ESE 23:15:24 42° SSE
Lacrosse 5 3.5 23:17:36 20° E 23:17:36 20° E 23:19:32 10° ENE
CZ-4C R/B 3.8 23:19:47 46° SW 23:20:34 55° W 23:24:37 10° NNW
Gbstr 26 Del rocket 3.5 23:16:27 10° NW 23:21:25 58° NNE 23:22:46 39° E
Cosmos 1331 Rocket 3.9 23:22:09 48° S 23:23:30 70° ESE 23:28:38 10° NNE
Spot 2 4.2 23:19:33 10° NNE 23:23:41 52° E 23:23:41 52° E
ASTEX 1 3.4 23:19:02 10° NNE 23:23:58 63° E 23:24:51 53° SE
AVUM R/B 3.7 23:22:18 10° NNW 23:25:32 62° W 23:25:32 62° W
Cosmos 1110 Rocket 3.9 23:28:13 39° SSW 23:30:13 90° ENE 23:35:27 10° NNE
Timation 1 Rocket 4.2 23:27:35 27° SSW 23:31:02 87° ESE 23:37:05 10° NNE
NOSS 3-1 (A) 4.5 23:24:33 10° NNW 23:31:50 54° NE 23:36:14 27° ESE
Cosmos 1400 Rocket 3.9 23:35:34 33° ENE 23:35:34 33° ENE 23:38:35 10° NNE
Cosmos 1536 4.2 23:36:20 27° ENE 23:36:20 27° ENE 23:38:55 10° NNE
CARTOSAT-1 4.0 23:35:50 45° SW 23:36:34 51° W 23:40:48 10° NNW
Cosmos 2369 Rocket 3.2 23:42:12 30° E 23:42:12 30° E 23:46:31 10° NE
Meteor 1-19 Rocket 4.4 23:38:43 10° N 23:44:33 64° ENE 23:45:47 51° SE
ATLAS 2AS CENTAUR R/B 4.2 23:45:17 10° NNW 23:52:41 36° NE 23:58:44 14° E
Cosmos 1354 Rocket 4.2 23:48:20 10° NNW 23:53:31 56° ENE 23:54:16 51° E
Cosmos 1486 Rocket 3.9 23:49:20 10° NNW 23:54:41 78° WSW 23:55:27 64° S
